Blacksburg, VA

8:56 PM EST on February 20, 2017 (GMT -0500)
Virginia Tech

Weather History for KBCB - March, 2014

Change the Weather History Date:

Thursday, March 27, 2014

  Actual Average Record
Temperature  
Mean Temperature 36 °F 45 °F  
Max Temperature 53 °F 57 °F 79 °F (2007)
Min Temperature 18 °F 33 °F 12 °F (1955)
Degree Days  
Heating Degree Days 29 20  
Month to date heating degree days 711 649  
Since 1 July heating degree days 4892 4697  
Cooling Degree Days 0 0  
Month to date cooling degree days 0 0  
Year to date cooling degree days 0 0  
Moisture  
Dew Point 21 °F    
Average Humidity 62    
Maximum Humidity 92    
Minimum Humidity 32    
Precipitation  
Precipitation 0.00 in 0.13 in 1.17 in (1959)
Month to date precipitation 1.95 3.12  
Year to date precipitation 7.58 9.01  
Snow  
Snow 0.00 in - - ()
Month to date snowfall 6.7  
Since 1 July snowfall 33.8  
Snow Depth 0.00 in    
Sea Level Pressure  
Sea Level Pressure 30.28 in    
Wind  
Wind Speed 5 mph (South)    
Max Wind Speed 13 mph    
Max Gust Speed 21 mph    
Visibility 10 miles    
Events      
T = Trace of Precipitation, MM = Missing Value Source: NWS Daily Summary

Daily Weather History Graph

Daily Weather History Graph

Search for Another Location

Airport or City:

Trip Planner

Search our weather history database for the weather conditions in past years. The results will help you decide how hot, cold, wet, or windy it might be!

Date:

Astronomy

Mar. 27, 2014 Rise Set
Actual Time 7:14 AM EDT 7:39 PM EDT
Civil Twilight 6:48 AM EDT 8:05 PM EDT
Nautical Twilight 6:18 AM EDT 8:36 PM EDT
Astronomical Twilight 5:46 AM EDT 9:07 PM EDT
Moon 5:00 AM EDT (3/27) 4:29 PM EDT (3/27)
Length of Visible Light 13h 17m
Length of Day
12h 25m
Waning Crescent, 13% of the Moon is Illuminated
Mar 27
Waning Crescent
Mar 30
New
Apr 7
First Quarter
Apr 15
Full
Apr 22
Last Quarter

Hourly Weather History & Observations

Time (EDT) Temp. Windchill Dew Point Humidity Pressure Visibility Wind Dir Wind Speed Gust Speed Precip Events Conditions
12:15 AM 24.8 °F - 17.6 °F 74% 30.27 in 10.0 mi Calm Calm - N/A   Clear
12:35 AM 24.8 °F - 15.8 °F 69% 30.27 in 10.0 mi Calm Calm - N/A   Clear
12:55 AM 24.8 °F - 15.8 °F 69% 30.28 in 10.0 mi Calm Calm - N/A   Clear
1:15 AM 23.0 °F - 17.6 °F 80% 30.29 in 10.0 mi Calm Calm - N/A   Clear
1:35 AM 23.0 °F 18.4 °F 17.6 °F 80% 30.30 in 10.0 mi SSW 3.5 mph - N/A   Clear
2:15 AM 23.0 °F - 17.6 °F 80% 30.31 in 10.0 mi Calm Calm - N/A   Clear
2:35 AM 23.0 °F - 17.6 °F 80% 30.30 in 10.0 mi Calm Calm - N/A   Clear
2:55 AM 21.2 °F - 17.6 °F 86% 30.30 in 10.0 mi Calm Calm - N/A   Clear
3:15 AM 21.2 °F - 17.6 °F 86% 30.29 in 10.0 mi Calm Calm - N/A   Clear
3:35 AM 21.2 °F - 17.6 °F 86% 30.29 in 10.0 mi Calm Calm - N/A   Clear
3:55 AM 21.2 °F - 17.6 °F 86% 30.29 in 10.0 mi Calm Calm - N/A   Clear
4:15 AM 21.2 °F - 17.6 °F 86% 30.29 in 10.0 mi Calm Calm - N/A   Clear
4:35 AM 21.2 °F - 17.6 °F 86% 30.30 in 10.0 mi Calm Calm - N/A   Clear
4:55 AM 21.2 °F - 17.6 °F 86% 30.30 in 10.0 mi Calm Calm - N/A   Clear
5:15 AM 21.2 °F 14.9 °F 17.6 °F 86% 30.31 in 10.0 mi West 4.6 mph - N/A   Clear
5:35 AM 21.2 °F - 19.4 °F 93% 30.30 in 10.0 mi Calm Calm - N/A   Clear
5:55 AM 19.4 °F - 17.6 °F 93% 30.30 in 10.0 mi Calm Calm - N/A   Clear
6:15 AM 19.4 °F - 17.6 °F 93% 30.32 in 10.0 mi Calm Calm - N/A   Clear
6:35 AM 19.4 °F - 17.6 °F 93% 30.32 in 10.0 mi Calm Calm - N/A   Clear
6:55 AM 19.4 °F - 17.6 °F 93% 30.33 in 10.0 mi Calm Calm - N/A   Clear
7:15 AM 21.2 °F - 19.4 °F 93% 30.33 in 10.0 mi Calm Calm - N/A   Clear
7:35 AM 21.2 °F - 19.4 °F 93% 30.34 in 10.0 mi Calm Calm - N/A   Clear
7:55 AM 21.2 °F - 19.4 °F 93% 30.34 in 10.0 mi Calm Calm - N/A   Clear
8:15 AM 24.8 °F - 21.2 °F 86% 30.34 in 10.0 mi Calm Calm - N/A   Clear
8:35 AM 28.4 °F - 21.2 °F 74% 30.35 in 10.0 mi Calm Calm - N/A   Clear
8:55 AM 28.4 °F - 21.2 °F 74% 30.35 in 10.0 mi Calm Calm - N/A   Clear
9:15 AM 30.2 °F - 21.2 °F 69% 30.34 in 10.0 mi Calm Calm - N/A   Clear
9:35 AM 32.0 °F 27.5 °F 19.4 °F 60% 30.36 in 10.0 mi SSE 4.6 mph - N/A   Clear
9:55 AM 33.8 °F - 19.4 °F 56% 30.36 in 10.0 mi Calm Calm - N/A   Clear
10:15 AM 35.6 °F 31.7 °F 19.4 °F 52% 30.36 in 10.0 mi SSE 4.6 mph - N/A   Clear
10:35 AM 37.4 °F 33.8 °F 19.4 °F 48% 30.36 in 10.0 mi South 4.6 mph - N/A   Clear
10:55 AM 39.2 °F 33.0 °F 19.4 °F 45% 30.36 in 10.0 mi South 9.2 mph - N/A   Clear
11:15 AM 39.2 °F 33.6 °F 19.4 °F 45% 30.36 in 10.0 mi South 8.1 mph - N/A   Clear
11:35 AM 42.8 °F 37.5 °F 17.6 °F 36% 30.36 in 10.0 mi South 9.2 mph - N/A   Clear
11:55 AM 42.8 °F 38.6 °F 19.4 °F 39% 30.35 in 10.0 mi South 6.9 mph - N/A   Clear
12:15 PM 44.6 °F 38.4 °F 17.6 °F 34% 30.35 in 10.0 mi South 12.7 mph 20.7 mph N/A   Clear
12:35 PM 44.6 °F 40.2 °F 17.6 °F 34% 30.33 in 10.0 mi SW 8.1 mph 18.4 mph N/A   Clear
12:55 PM 44.6 °F 39.2 °F 19.4 °F 37% 30.33 in 10.0 mi SSW 10.4 mph 19.6 mph N/A   Clear
1:15 PM 46.4 °F 41.5 °F 19.4 °F 34% 30.32 in 10.0 mi SSW 10.4 mph 17.3 mph N/A   Clear
1:35 PM 46.4 °F 41.5 °F 19.4 °F 34% 30.31 in 10.0 mi South 10.4 mph 19.6 mph N/A   Clear
1:55 PM 48.2 °F - 21.2 °F 34% 30.29 in 10.0 mi South 12.7 mph 18.4 mph N/A   Clear
2:15 PM 48.2 °F - 21.2 °F 34% 30.29 in 10.0 mi SSW 9.2 mph 20.7 mph N/A   Clear
2:35 PM 48.2 °F - 21.2 °F 34% 30.28 in 10.0 mi South 11.5 mph 18.4 mph N/A   Clear
2:55 PM 50.0 °F - 21.2 °F 32% 30.27 in 10.0 mi South 10.4 mph 20.7 mph N/A   Clear
3:15 PM 50.0 °F - 21.2 °F 32% 30.26 in 10.0 mi SSW 10.4 mph 18.4 mph N/A   Clear
3:35 PM 51.8 °F - 23.0 °F 33% 30.25 in 10.0 mi South 9.2 mph 18.4 mph N/A   Clear
3:55 PM 51.8 °F - 23.0 °F 33% 30.25 in 10.0 mi SSW 9.2 mph 18.4 mph N/A   Clear
4:15 PM 51.8 °F - 23.0 °F 33% 30.24 in 10.0 mi South 8.1 mph 20.7 mph N/A   Clear
4:35 PM 51.8 °F - 24.8 °F 35% 30.24 in 10.0 mi South 10.4 mph 19.6 mph N/A   Clear
4:55 PM 51.8 °F - 24.8 °F 35% 30.24 in 10.0 mi South 12.7 mph 19.6 mph N/A   Scattered Clouds
5:15 PM 53.6 °F - 24.8 °F 33% 30.23 in 10.0 mi SSW 9.2 mph 17.3 mph N/A   Mostly Cloudy
5:35 PM 53.6 °F - 24.8 °F 33% 30.22 in 10.0 mi South 15.0 mph 20.7 mph N/A   Scattered Clouds
5:55 PM 51.8 °F - 24.8 °F 35% 30.23 in 10.0 mi South 11.5 mph 18.4 mph N/A   Clear
6:15 PM 51.8 °F - 24.8 °F 35% 30.23 in 10.0 mi South 10.4 mph 17.3 mph N/A   Clear
6:35 PM 51.8 °F - 24.8 °F 35% 30.23 in 10.0 mi South 9.2 mph 17.3 mph N/A   Clear
6:55 PM 51.8 °F - 24.8 °F 35% 30.21 in 10.0 mi South 10.4 mph 17.3 mph N/A   Clear
7:15 PM 50.0 °F - 24.8 °F 37% 30.22 in 10.0 mi SSW 9.2 mph 17.3 mph N/A   Clear
7:35 PM 48.2 °F - 24.8 °F 40% 30.21 in 10.0 mi South 5.8 mph - N/A   Clear
7:55 PM 48.2 °F - 24.8 °F 40% 30.21 in 10.0 mi South 4.6 mph - N/A   Clear
8:15 PM 48.2 °F - 23.0 °F 37% 30.22 in 10.0 mi Calm Calm - N/A   Clear
8:55 PM 46.4 °F - 24.8 °F 43% 30.24 in 10.0 mi Calm Calm - N/A   Mostly Cloudy
9:15 PM 46.4 °F - 24.8 °F 43% 30.25 in 10.0 mi Calm Calm - N/A   Mostly Cloudy
9:35 PM 46.4 °F - 24.8 °F 43% 30.24 in 10.0 mi Calm Calm - N/A   Mostly Cloudy
9:55 PM 46.4 °F 44.3 °F 24.8 °F 43% 30.23 in 10.0 mi South 4.6 mph - N/A   Scattered Clouds
10:15 PM 48.2 °F - 24.8 °F 40% 30.23 in 10.0 mi SSW 5.8 mph - N/A   Mostly Cloudy
10:35 PM 48.2 °F - 24.8 °F 40% 30.22 in 10.0 mi South 6.9 mph - N/A   Overcast
10:55 PM 46.4 °F 45.2 °F 24.8 °F 43% 30.21 in 10.0 mi SSE 3.5 mph - N/A   Mostly Cloudy
11:15 PM 46.4 °F 45.2 °F 24.8 °F 43% 30.20 in 10.0 mi South 3.5 mph - N/A   Clear
11:35 PM 46.4 °F 44.3 °F 24.8 °F 43% 30.20 in 10.0 mi South 4.6 mph - N/A   Clear
11:55 PM 46.4 °F 41.9 °F 24.8 °F 43% 30.19 in 10.0 mi South 9.2 mph - N/A   Scattered Clouds